QPF
0.01 0.01 0.01 0.01 0.01 0.01 0.01 0.02 0.02 0.01 0.01 0.00 0.00 0.00 0.00 0.00 0.01 0.01 0.00 0.00 0.00 0.00 0.00 0.00 0.00 0.00 0.01 0.00 0.01 0.01 0.02 0.02 0.01 0.01 0.01 0.03 0.03 0.04 0.04 0.04 0.04 0.04 0.03 0.03
0.01 0.00 0.00 0.00 0.00 0.00 0.01 0.01 0.01 0.01 0.01 0.00 0.00 0.00 0.00 0.01 0.00 0.00 0.00 0.00 0.00 0.01 0.01 0.00 0.00 0.01 0.01 0.01 0.01 0.01 0.01 0.01 0.02 0.02 0.02 0.02 0.03 0.03 0.03 0.04 0.05 0.05 0.03 0.03
0.01 0.00 0.00 0.00 0.00 0.00 0.01 0.01 0.01 0.01 0.00 0.00 0.01 0.01 0.01 0.01 0.00 0.00 0.00 0.00 0.00 0.00 0.01 0.01 0.01 0.01 0.01 0.01 0.01 0.00 0.01 0.01 0.01 0.01 0.01 0.01 0.02 0.02 0.02 0.03 0.04 0.05 0.05 0.04
0.01 0.01 0.01 0.00 0.00 0.01 0.01 0.01 0.01 0.01 0.00 0.01 0.01 0.01 0.01 0.01 0.00 0.00 0.00 0.00 0.00 0.00 0.00 0.00 0.01 0.01 0.01 0.01 0.01 0.00 0.01 0.01 0.01 0.01 0.01 0.01 0.01 0.02 0.02 0.02 0.03 0.03 0.03 0.03
0.02 0.02 0.02 0.01 0.02 0.02 0.02 0.01 0.01 0.01 0.01 0.00 0.00 0.01 0.01 0.01 0.00 0.00 0.00 0.00 0.00 0.00 0.00 0.00 0.00 0.01 0.01 0.01 0.01 0.01 0.01 0.00 0.00 0.01 0.02 0.02 0.01 0.01 0.02 0.02 0.03 0.03 0.04 0.03
0.03 0.03 0.02 0.02 0.02 0.01 0.01 0.02 0.01 0.01 0.01 0.01 0.00 0.01 0.01 0.01 0.00 0.00 0.00 0.00 0.00 0.00 0.00 0.00 0.00 0.00 0.01 0.01 0.01 0.01 0.01 0.01 0.01 0.02 0.02 0.02 0.02 0.01 0.01 0.02 0.04 0.04 0.04 0.04
0.01 0.01 0.01 0.01 0.00 0.01 0.02 0.02 0.01 0.01 0.01 0.01 0.01 0.01 0.01 0.01 0.01 0.00 0.00 0.00 0.00 0.00 0.00 0.00 0.00 0.00 0.00 0.01 0.01 0.01 0.01 0.01 0.01 0.01 0.02 0.02 0.02 0.02 0.02 0.02 0.02 0.03 0.05 0.05
0.01 0.01 0.01 0.01 0.00 0.01 0.01 0.01 0.01 0.02 0.02 0.01 0.01 0.01 0.01 0.01 0.00 0.00 0.00 0.00 0.00 0.00 0.01 0.01 0.01 0.01 0.01 0.01 0.01 0.01 0.01 0.01 0.01 0.01 0.01 0.01 0.02 0.02 0.02 0.02 0.02 0.02 0.02 0.03
0.01 0.01 0.01 0.00 0.01 0.01 0.01 0.01 0.01 0.01 0.01 0.01 0.01 0.00 0.00 0.00 0.00 0.00 0.00 0.00 0.01 0.01 0.01 0.01 0.01 0.01 0.01 0.01 0.02 0.02 0.02 0.02 0.02 0.01 0.00 0.01 0.01 0.01 0.02 0.02 0.02 0.02 0.02 0.02
0.01 0.00 0.00 0.00 0.00 0.00 0.01 0.00 0.00 0.00 0.00 0.01 0.00 0.00 0.00 0.00 0.00 0.00 0.01 0.01 0.01 0.01 0.01 0.01 0.01 0.01 0.01 0.01 0.01 0.02 0.01 0.01 0.02 0.01 0.01 0.01 0.01 0.01 0.01 0.01 0.01 0.01 0.02 0.02
0.01 0.00 0.00 0.00 0.00 0.00 0.00 0.00 0.00 0.00 0.00 0.00 0.00 0.00 0.00 0.00 0.00 0.00 0.01 0.01 0.01 0.01 0.00 0.00 0.00 0.01 0.01 0.01 0.01 0.01 0.01 0.01 0.01 0.01 0.01 0.01 0.01 0.01 0.01 0.01 0.02 0.02 0.02 0.02
0.01 0.00 0.00 0.00 0.00 0.00 0.00 0.00 0.00 0.00 0.00 0.00 0.00 0.00 0.00 0.00 0.00 0.01 0.01 0.01 0.01 0.01 0.01 0.00 0.00 0.01 0.01 0.01 0.01 0.01 0.01 0.01 0.01 0.01 0.01 0.01 0.01 0.01 0.01 0.01 0.01 0.01 0.02 0.02
0.00 0.00 0.00 0.00 0.00 0.00 0.00 0.00 0.00 0.00 0.00 0.00 0.00 0.00 0.00 0.00 0.01 0.01 0.01 0.01 0.02 0.01 0.01 0.01 0.00 0.01 0.01 0.01 0.01 0.01 0.01 0.00 0.01 0.01 0.01 0.01 0.01 0.01 0.01 0.01 0.01 0.01 0.01 0.01
0.00 0.00 0.00 0.00 0.00 0.00 0.00 0.00 0.00 0.00 0.00 0.00 0.00 0.00 0.00 0.00 0.01 0.01 0.01 0.01 0.01 0.00 0.00 0.00 0.00 0.00 0.00 0.01 0.01 0.01 0.01 0.01 0.01 0.01 0.01 0.01 0.01 0.01 0.01 0.01 0.01 0.02 0.01 0.01
0.00 0.00 0.00 0.00 0.00 0.00 0.00 0.00 0.00 0.00 0.00 0.00 0.00 0.00 0.00 0.00 0.01 0.01 0.01 0.00 0.00 0.00 0.00 0.01 0.01 0.00 0.00 0.00 0.01 0.01 0.01 0.01 0.01 0.01 0.01 0.01 0.01 0.01 0.01 0.01 0.01 0.01 0.01 0.01
0.00 0.00 0.00 0.00 0.00 0.00 0.00 0.00 0.00 0.00 0.00 0.00 0.00 0.00 0.00 0.00 0.01 0.01 0.00 0.00 0.00 0.00 0.00 0.01 0.00 0.00 0.00 0.00 0.01 0.01 0.01 0.01 0.01 0.02 0.02 0.01 0.01 0.01 0.01 0.01 0.01 0.01 0.01 0.01
0.00 0.00 0.00 0.00 0.00 0.00 0.00 0.00 0.00 0.00 0.00 0.00 0.00 0.00 0.00 0.01 0.00 0.00 0.00 0.00 0.00 0.00 0.01 0.01 0.01 0.01 0.01 0.01 0.01 0.01 0.01 0.02 0.02 0.02 0.02 0.02 0.02 0.02 0.02 0.01 0.01 0.01 0.01 0.01
0.00 0.00 0.00 0.00 0.00 0.00 0.00 0.00 0.00 0.00 0.01 0.01 0.01 0.00 0.01 0.00 0.00 0.01 0.01 0.01 0.01 0.01 0.01 0.02 0.02 0.03 0.02 0.02 0.02 0.02 0.02 0.02 0.02 0.02 0.02 0.02 0.02 0.02 0.02 0.02 0.01 0.01 0.01 0.01
0.00 0.00 0.00 0.00 0.00 0.00 0.01 0.02 0.01 0.01 0.01 0.01 0.01 0.01 0.01 0.01 0.01 0.01 0.02 0.02 0.02 0.02 0.02 0.03 0.03 0.03 0.03 0.03 0.03 0.03 0.03 0.03 0.03 0.03 0.02 0.02 0.01 0.01 0.01 0.01 0.01 0.01 0.01 0.01
0.01 0.01 0.01 0.01 0.02 0.03 0.04 0.04 0.02 0.01 0.01 0.01 0.01 0.01 0.00 0.00 0.01 0.01 0.01 0.01 0.01 0.01 0.02 0.02 0.02 0.02 0.02 0.02 0.02 0.01 0.02 0.02 0.02 0.01 0.01 0.01 0.01 0.01 0.01 0.01 0.01 0.01 0.01 0.01
0.02 0.02 0.03 0.03 0.04 0.04 0.05 0.06 0.05 0.03 0.02 0.02 0.02 0.01 0.01 0.01 0.01 0.01 0.01 0.01 0.02 0.02 0.02 0.02 0.01 0.01 0.01 0.01 0.01 0.01 0.01 0.01 0.01 0.01 0.01 0.01 0.01 0.02 0.01 0.01 0.02 0.02 0.01 0.01
0.02 0.03 0.04 0.04 0.04 0.04 0.05 0.05 0.05 0.03 0.02 0.01 0.02 0.03 0.03 0.02 0.02 0.01 0.02 0.02 0.03 0.03 0.04 0.03 0.02 0.02 0.02 0.01 0.01 0.01 0.01 0.01 0.01 0.01 0.02 0.02 0.02 0.02 0.02 0.02 0.02 0.02 0.02 0.02
0.03 0.03 0.03 0.03 0.04 0.04 0.04 0.05 0.04 0.03 0.02 0.02 0.02 0.02 0.03 0.03 0.02 0.02 0.02 0.02 0.02 0.03 0.03 0.04 0.05 0.04 0.03 0.02 0.02 0.02 0.02 0.02 0.02 0.02 0.03 0.03 0.03 0.03 0.04 0.04 0.03 0.02 0.02 0.02
0.02 0.02 0.02 0.03 0.03 0.03 0.03 0.03 0.03 0.02 0.02 0.02 0.02 0.02 0.02 0.02 0.02 0.01 0.01 0.01 0.01 0.02 0.02 0.03 0.04 0.03 0.03 0.02 0.02 0.02 0.02 0.02 0.03 0.03 0.03 0.03 0.03 0.03 0.03 0.03 0.02 0.02 0.01 0.01
0.01 0.01 0.01 0.02 0.02 0.01 0.00 0.00 0.00 0.01 0.01 0.01 0.02 0.01 0.01 0.01 0.01 0.01 0.00 0.00 0.01 0.01 0.01 0.02 0.02 0.02 0.01 0.01 0.02 0.02 0.02 0.03 0.04 0.04 0.03 0.03 0.03 0.03 0.03 0.02 0.01 0.01 0.01 0.01
0.01 0.01 0.01 0.02 0.02 0.01 0.00 0.00 0.00 0.01 0.01 0.01 0.01 0.01 0.01 0.01 0.00 0.00 0.00 0.00 0.00 0.01 0.02 0.01 0.01 0.01 0.01 0.02 0.02 0.02 0.03 0.03 0.04 0.04 0.03 0.03 0.03 0.03 0.02 0.01 0.01 0.01 0.01 0.01
0.00 0.00 0.00 0.01 0.01 0.01 0.01 0.01 0.01 0.01 0.02 0.02 0.02 0.01 0.02 0.02 0.01 0.01 0.01 0.00 0.01 0.01 0.01 0.01 0.01 0.01 0.02 0.02 0.02 0.02 0.03 0.03 0.03 0.03 0.03 0.03 0.03 0.02 0.01 0.01 0.01 0.01 0.01 0.01
MSLP
1014.41 1014.93 1015.38 1015.74 1015.99 1016.11 1016.09 1015.94 1015.68 1015.33 1014.96 1014.60 1014.33 1014.17 1014.17 1014.31 1014.60 1015.01 1015.48 1015.99 1016.48 1016.95 1017.37 1017.75 1018.10 1018.44 1018.77 1019.11 1019.46 1019.80 1020.13 1020.41 1020.65 1020.84 1020.97 1021.06 1021.14 1021.20 1021.28 1021.38 1021.51 1021.64 1021.78 1021.90
1014.22 1014.60 1014.88 1015.03 1015.06 1014.99 1014.82 1014.59 1014.31 1014.03 1013.79 1013.61 1013.54 1013.58 1013.74 1014.01 1014.38 1014.80 1015.26 1015.72 1016.17 1016.60 1017.01 1017.42 1017.82 1018.24 1018.67 1019.11 1019.56 1019.98 1020.37 1020.69 1020.96 1021.15 1021.29 1021.38 1021.46 1021.53 1021.61 1021.72 1021.84 1021.97 1022.09 1022.20
1014.18 1014.40 1014.46 1014.39 1014.21 1013.95 1013.64 1013.32 1013.03 1012.80 1012.65 1012.62 1012.70 1012.90 1013.18 1013.54 1013.95 1014.38 1014.81 1015.24 1015.65 1016.07 1016.49 1016.93 1017.41 1017.92 1018.46 1019.02 1019.56 1020.08 1020.53 1020.91 1021.20 1021.42 1021.56 1021.66 1021.74 1021.81 1021.90 1022.00 1022.12 1022.25 1022.36 1022.44
1014.22 1014.24 1014.10 1013.81 1013.42 1012.98 1012.54 1012.14 1011.83 1011.63 1011.56 1011.63 1011.82 1012.12 1012.48 1012.90 1013.33 1013.76 1014.17 1014.58 1014.98 1015.40 1015.85 1016.36 1016.92 1017.53 1018.18 1018.84 1019.49 1020.09 1020.61 1021.03 1021.36 1021.59 1021.76 1021.87 1021.95 1022.03 1022.12 1022.23 1022.34 1022.45 1022.55 1022.61
1014.20 1014.03 1013.68 1013.20 1012.63 1012.05 1011.50 1011.05 1010.71 1010.53 1010.51 1010.64 1010.91 1011.27 1011.69 1012.14 1012.58 1013.02 1013.43 1013.84 1014.25 1014.70 1015.21 1015.78 1016.42 1017.13 1017.87 1018.62 1019.35 1020.01 1020.58 1021.05 1021.41 1021.67 1021.84 1021.97 1022.07 1022.16 1022.26 1022.37 1022.48 1022.58 1022.66 1022.71
1013.96 1013.61 1013.09 1012.46 1011.77 1011.10 1010.49 1010.00 1009.66 1009.50 1009.52 1009.70 1010.01 1010.41 1010.86 1011.33 1011.80 1012.25 1012.68 1013.12 1013.57 1014.07 1014.63 1015.27 1015.99 1016.77 1017.58 1018.39 1019.16 1019.86 1020.46 1020.95 1021.33 1021.61 1021.81 1021.96 1022.08 1022.20 1022.31 1022.42 1022.54 1022.64 1022.71 1022.74
1013.36 1012.89 1012.26 1011.54 1010.79 1010.08 1009.46 1008.98 1008.68 1008.55 1008.61 1008.82 1009.16 1009.60 1010.08 1010.58 1011.07 1011.55 1012.02 1012.50 1013.01 1013.57 1014.19 1014.89 1015.66 1016.48 1017.32 1018.15 1018.93 1019.64 1020.24 1020.74 1021.13 1021.43 1021.66 1021.84 1021.99 1022.13 1022.27 1022.40 1022.53 1022.63 1022.70 1022.73
1012.38 1011.83 1011.16 1010.42 1009.69 1009.01 1008.44 1008.02 1007.78 1007.71 1007.81 1008.06 1008.44 1008.90 1009.40 1009.93 1010.46 1010.98 1011.50 1012.04 1012.61 1013.22 1013.90 1014.63 1015.42 1016.25 1017.09 1017.90 1018.66 1019.34 1019.93 1020.42 1020.82 1021.13 1021.39 1021.61 1021.80 1021.99 1022.16 1022.32 1022.47 1022.58 1022.66 1022.71
1011.04 1010.48 1009.84 1009.16 1008.51 1007.93 1007.47 1007.15 1006.99 1007.00 1007.16 1007.46 1007.86 1008.34 1008.87 1009.43 1009.99 1010.56 1011.13 1011.72 1012.34 1013.01 1013.71 1014.46 1015.25 1016.05 1016.85 1017.61 1018.32 1018.96 1019.52 1019.99 1020.39 1020.74 1021.03 1021.30 1021.54 1021.78 1022.00 1022.20 1022.38 1022.52 1022.63 1022.69
1009.49 1008.97 1008.41 1007.85 1007.34 1006.91 1006.59 1006.40 1006.36 1006.46 1006.68 1007.02 1007.45 1007.94 1008.49 1009.06 1009.64 1010.25 1010.86 1011.49 1012.15 1012.84 1013.56 1014.30 1015.06 1015.81 1016.55 1017.25 1017.90 1018.48 1019.01 1019.47 1019.88 1020.25 1020.60 1020.92 1021.23 1021.53 1021.81 1022.06 1022.29 1022.47 1022.60 1022.70
1007.88 1007.45 1007.02 1006.61 1006.27 1006.01 1005.86 1005.82 1005.90 1006.08 1006.36 1006.73 1007.17 1007.67 1008.21 1008.78 1009.37 1009.99 1010.63 1011.28 1011.95 1012.65 1013.35 1014.07 1014.78 1015.47 1016.14 1016.77 1017.36 1017.90 1018.40 1018.86 1019.30 1019.71 1020.11 1020.51 1020.89 1021.26 1021.61 1021.92 1022.20 1022.43 1022.61 1022.76
1006.40 1006.09 1005.80 1005.56 1005.39 1005.31 1005.32 1005.41 1005.59 1005.85 1006.17 1006.55 1006.99 1007.47 1007.99 1008.54 1009.12 1009.73 1010.35 1011.00 1011.67 1012.34 1013.02 1013.69 1014.35 1014.98 1015.59 1016.16 1016.71 1017.22 1017.71 1018.19 1018.66 1019.14 1019.61 1020.07 1020.54 1020.98 1021.40 1021.79 1022.12 1022.41 1022.64 1022.84
1005.17 1004.97 1004.81 1004.73 1004.72 1004.80 1004.94 1005.15 1005.41 1005.71 1006.06 1006.44 1006.85 1007.30 1007.78 1008.29 1008.83 1009.41 1010.01 1010.63 1011.26 1011.90 1012.54 1013.16 1013.77 1014.35 1014.90 1015.44 1015.96 1016.47 1016.98 1017.49 1018.01 1018.55 1019.10 1019.65 1020.19 1020.71 1021.20 1021.65 1022.04 1022.39 1022.68 1022.94
1004.22 1004.11 1004.08 1004.12 1004.24 1004.43 1004.68 1004.96 1005.28 1005.61 1005.96 1006.33 1006.71 1007.11 1007.54 1008.01 1008.50 1009.03 1009.59 1010.17 1010.76 1011.35 1011.94 1012.51 1013.07 1013.61 1014.13 1014.65 1015.16 1015.69 1016.23 1016.79 1017.38 1017.99 1018.61 1019.23 1019.85 1020.44 1021.00 1021.50 1021.96 1022.36 1022.71 1023.03
1003.52 1003.48 1003.53 1003.67 1003.88 1004.15 1004.46 1004.80 1005.15 1005.50 1005.84 1006.19 1006.54 1006.90 1007.29 1007.70 1008.15 1008.63 1009.14 1009.67 1010.21 1010.75 1011.29 1011.82 1012.34 1012.85 1013.35 1013.87 1014.40 1014.95 1015.53 1016.15 1016.80 1017.48 1018.17 1018.86 1019.54 1020.19 1020.79 1021.35 1021.85 1022.31 1022.71 1023.09
1002.97 1002.98 1003.09 1003.28 1003.55 1003.87 1004.23 1004.60 1004.96 1005.32 1005.66 1006.00 1006.33 1006.67 1007.03 1007.41 1007.82 1008.26 1008.72 1009.21 1009.70 1010.20 1010.69 1011.18 1011.67 1012.16 1012.66 1013.18 1013.73 1014.31 1014.94 1015.61 1016.32 1017.05 1017.80 1018.54 1019.26 1019.95 1020.60 1021.19 1021.74 1022.23 1022.68 1023.10
1002.47 1002.52 1002.66 1002.89 1003.19 1003.55 1003.93 1004.32 1004.70 1005.07 1005.42 1005.76 1006.10 1006.44 1006.79 1007.17 1007.56 1007.98 1008.42 1008.87 1009.32 1009.78 1010.24 1010.69 1011.16 1011.63 1012.12 1012.65 1013.22 1013.84 1014.50 1015.21 1015.96 1016.73 1017.52 1018.29 1019.04 1019.76 1020.42 1021.04 1021.61 1022.13 1022.61 1023.07
1001.95 1002.02 1002.19 1002.44 1002.77 1003.14 1003.54 1003.95 1004.36 1004.75 1005.13 1005.50 1005.87 1006.24 1006.61 1007.01 1007.41 1007.83 1008.26 1008.69 1009.12 1009.55 1009.98 1010.41 1010.85 1011.31 1011.80 1012.33 1012.91 1013.55 1014.23 1014.97 1015.75 1016.54 1017.34 1018.13 1018.89 1019.61 1020.28 1020.90 1021.48 1022.01 1022.51 1022.99
1001.37 1001.47 1001.67 1001.95 1002.29 1002.68 1003.10 1003.53 1003.97 1004.40 1004.82 1005.24 1005.66 1006.07 1006.50 1006.93 1007.37 1007.81 1008.24 1008.68 1009.10 1009.51 1009.92 1010.33 1010.75 1011.20 1011.68 1012.21 1012.80 1013.44 1014.14 1014.88 1015.66 1016.46 1017.26 1018.04 1018.80 1019.51 1020.17 1020.79 1021.36 1021.89 1022.40 1022.88
1000.77 1000.91 1001.14 1001.44 1001.81 1002.22 1002.66 1003.11 1003.58 1004.05 1004.52 1004.99 1005.47 1005.95 1006.43 1006.92 1007.40 1007.88 1008.34 1008.79 1009.21 1009.62 1010.02 1010.42 1010.83 1011.26 1011.73 1012.25 1012.83 1013.47 1014.16 1014.90 1015.67 1016.46 1017.24 1018.01 1018.75 1019.44 1020.09 1020.69 1021.25 1021.78 1022.27 1022.75
1000.21 1000.41 1000.67 1001.01 1001.39 1001.82 1002.27 1002.75 1003.24 1003.74 1004.25 1004.77 1005.31 1005.85 1006.39 1006.93 1007.47 1007.98 1008.48 1008.94 1009.38 1009.80 1010.20 1010.59 1010.99 1011.42 1011.88 1012.39 1012.95 1013.58 1014.25 1014.97 1015.72 1016.48 1017.25 1017.99 1018.70 1019.38 1020.01 1020.59 1021.14 1021.65 1022.13 1022.60
999.77 1000.02 1000.33 1000.70 1001.10 1001.53 1001.99 1002.47 1002.97 1003.49 1004.03 1004.59 1005.16 1005.75 1006.34 1006.93 1007.51 1008.06 1008.59 1009.08 1009.54 1009.96 1010.37 1010.77 1011.17 1011.58 1012.04 1012.53 1013.08 1013.68 1014.34 1015.03 1015.75 1016.49 1017.22 1017.94 1018.63 1019.28 1019.89 1020.46 1021.00 1021.49 1021.96 1022.41
999.48 999.80 1000.16 1000.55 1000.96 1001.40 1001.85 1002.32 1002.81 1003.33 1003.87 1004.44 1005.03 1005.64 1006.26 1006.88 1007.49 1008.07 1008.63 1009.14 1009.62 1010.06 1010.48 1010.88 1011.29 1011.70 1012.15 1012.63 1013.16 1013.74 1014.37 1015.03 1015.73 1016.43 1017.14 1017.83 1018.49 1019.13 1019.72 1020.28 1020.80 1021.29 1021.75 1022.18
999.37 999.75 1000.14 1000.55 1000.97 1001.39 1001.82 1002.27 1002.73 1003.23 1003.75 1004.31 1004.90 1005.52 1006.15 1006.78 1007.40 1008.00 1008.58 1009.11 1009.60 1010.06 1010.50 1010.91 1011.32 1011.73 1012.18 1012.65 1013.17 1013.72 1014.32 1014.95 1015.61 1016.29 1016.96 1017.63 1018.27 1018.89 1019.48 1020.03 1020.55 1021.03 1021.49 1021.91
999.40 999.83 1000.25 1000.66 1001.07 1001.47 1001.87 1002.29 1002.72 1003.18 1003.68 1004.21 1004.79 1005.39 1006.01 1006.64 1007.26 1007.87 1008.45 1008.99 1009.50 1009.97 1010.41 1010.84 1011.25 1011.68 1012.11 1012.58 1013.08 1013.61 1014.18 1014.79 1015.41 1016.06 1016.71 1017.35 1017.98 1018.58 1019.16 1019.71 1020.23 1020.72 1021.17 1021.59
999.50 999.96 1000.40 1000.81 1001.20 1001.58 1001.95 1002.33 1002.73 1003.16 1003.62 1004.13 1004.68 1005.26 1005.86 1006.47 1007.09 1007.69 1008.26 1008.81 1009.32 1009.80 1010.25 1010.68 1011.11 1011.53 1011.97 1012.43 1012.91 1013.43 1013.98 1014.55 1015.15 1015.77 1016.39 1017.01 1017.62 1018.22 1018.79 1019.34 1019.87 1020.36 1020.82 1021.24
999.59 1000.07 1000.50 1000.91 1001.28 1001.63 1001.98 1002.34 1002.71 1003.12 1003.56 1004.04 1004.57 1005.12 1005.70 1006.30 1006.89 1007.48 1008.04 1008.58 1009.09 1009.57 1010.02 1010.46 1010.89 1011.32 1011.76 1012.21 1012.69 1013.20 1013.73 1014.28 1014.86 1015.45 1016.05 1016.66 1017.25 1017.84 1018.41 1018.97 1019.49 1019.99 1020.45 1020.88
Thickness
5650 5656 5657 5657 5660 5661 5655 5648 5639 5644 5647 5654 5660 5662 5664 5665 5665 5665 5665 5664 5664 5663 5663 5664 5664 5664 5663 5662 5662 5661 5658 5657 5655 5654 5652 5650 5649 5647 5646 5645 5644 5642 5640 5639
5643 5652 5652 5651 5655 5656 5654 5652 5646 5644 5644 5655 5657 5656 5655 5655 5656 5655 5656 5657 5657 5657 5657 5657 5657 5657 5656 5655 5655 5653 5651 5649 5648 5647 5644 5642 5641 5640 5639 5638 5637 5635 5633 5632
5625 5637 5640 5635 5647 5649 5646 5646 5644 5636 5640 5647 5645 5646 5646 5646 5647 5647 5649 5650 5650 5649 5649 5650 5650 5650 5649 5648 5647 5645 5644 5642 5641 5639 5637 5635 5634 5632 5630 5630 5629 5627 5626 5625
5615 5622 5617 5633 5648 5648 5642 5639 5640 5639 5640 5641 5641 5642 5643 5642 5641 5640 5642 5643 5643 5643 5643 5644 5644 5642 5641 5639 5638 5636 5635 5634 5633 5631 5630 5628 5626 5624 5622 5622 5621 5620 5619 5618
5605 5606 5614 5631 5640 5640 5633 5628 5634 5633 5633 5634 5636 5634 5632 5636 5637 5636 5637 5637 5637 5637 5637 5636 5636 5635 5632 5630 5629 5628 5626 5626 5626 5625 5623 5621 5618 5617 5615 5614 5613 5612 5611 5610
5600 5601 5602 5622 5637 5640 5631 5616 5628 5627 5626 5626 5624 5612 5616 5627 5628 5629 5629 5629 5628 5628 5627 5627 5627 5626 5623 5621 5620 5619 5619 5619 5618 5617 5615 5613 5612 5610 5608 5607 5605 5604 5603 5602
5596 5595 5604 5623 5632 5631 5609 5610 5622 5621 5619 5617 5613 5611 5615 5619 5619 5619 5619 5618 5619 5618 5617 5617 5618 5617 5614 5612 5612 5613 5613 5612 5610 5609 5608 5606 5605 5602 5600 5598 5596 5595 5594 5594
5590 5588 5597 5622 5620 5613 5611 5616 5616 5614 5613 5611 5608 5609 5609 5609 5608 5608 5607 5607 5608 5606 5606 5607 5608 5607 5604 5603 5605 5605 5604 5603 5602 5601 5600 5599 5596 5593 5591 5589 5587 5585 5584 5583
5596 5598 5610 5616 5616 5616 5614 5610 5609 5607 5606 5604 5601 5600 5600 5599 5598 5598 5598 5597 5597 5596 5595 5596 5597 5597 5595 5595 5596 5595 5594 5594 5593 5592 5591 5590 5588 5585 5583 5581 5579 5577 5575 5574
5593 5600 5606 5609 5611 5610 5609 5606 5604 5602 5600 5598 5593 5592 5590 5589 5588 5588 5588 5588 5587 5586 5585 5585 5586 5587 5587 5587 5586 5585 5584 5583 5583 5582 5581 5581 5580 5578 5575 5573 5571 5569 5567 5565
5586 5594 5598 5601 5602 5603 5601 5600 5598 5596 5594 5591 5588 5585 5583 5581 5580 5580 5580 5579 5578 5577 5576 5576 5577 5577 5578 5578 5577 5575 5574 5574 5573 5573 5572 5570 5570 5568 5567 5566 5565 5563 5561 5558
5582 5591 5588 5592 5597 5597 5594 5592 5591 5588 5586 5584 5582 5579 5577 5574 5573 5572 5572 5571 5570 5569 5568 5568 5568 5568 5569 5569 5568 5567 5565 5564 5563 5562 5561 5561 5559 5557 5557 5557 5557 5556 5554 5551
5589 5592 5589 5590 5591 5590 5588 5586 5584 5582 5579 5576 5574 5572 5570 5567 5566 5565 5564 5563 5562 5561 5561 5560 5560 5560 5560 5560 5559 5558 5557 5556 5554 5554 5553 5551 5550 5549 5546 5546 5546 5545 5543 5542
5586 5585 5581 5581 5581 5581 5580 5578 5576 5574 5571 5569 5566 5564 5562 5560 5558 5557 5556 5555 5555 5554 5553 5553 5552 5552 5552 5552 5551 5549 5548 5548 5547 5545 5544 5543 5542 5541 5539 5537 5535 5532 5532 5531
5579 5578 5575 5575 5574 5573 5571 5568 5565 5563 5561 5560 5558 5556 5553 5551 5550 5549 5548 5548 5547 5546 5545 5545 5544 5544 5544 5544 5542 5540 5539 5538 5537 5536 5535 5534 5533 5531 5529 5528 5525 5522 5520 5519
5571 5570 5568 5567 5565 5563 5561 5559 5556 5555 5554 5552 5550 5548 5546 5545 5543 5541 5540 5540 5538 5537 5537 5537 5536 5536 5536 5535 5534 5532 5531 5531 5530 5527 5525 5524 5522 5521 5518 5517 5514 5512 5510 5508
5562 5559 5558 5557 5556 5555 5553 5552 5550 5548 5546 5544 5543 5541 5539 5536 5534 5533 5532 5532 5531 5530 5530 5529 5529 5529 5528 5528 5526 5524 5522 5521 5521 5519 5516 5514 5513 5511 5509 5507 5504 5502 5500 5499
5561 5558 5556 5554 5551 5548 5547 5545 5543 5541 5540 5539 5537 5534 5531 5529 5526 5525 5525 5524 5523 5522 5522 5522 5522 5521 5520 5519 5518 5516 5514 5512 5511 5509 5507 5505 5504 5502 5500 5498 5495 5493 5490 5488
5555 5553 5551 5548 5546 5544 5541 5539 5538 5536 5535 5533 5530 5527 5525 5523 5520 5519 5517 5516 5514 5513 5514 5514 5515 5513 5511 5510 5509 5507 5505 5504 5501 5500 5498 5497 5494 5492 5490 5487 5485 5483 5480 5477
5547 5546 5544 5542 5541 5538 5536 5534 5533 5531 5529 5526 5523 5520 5517 5515 5513 5511 5510 5508 5508 5508 5508 5507 5507 5505 5503 5502 5502 5499 5498 5495 5493 5491 5488 5486 5484 5482 5479 5477 5475 5473 5470 5467
5539 5538 5536 5535 5534 5533 5531 5529 5526 5523 5521 5519 5516 5513 5510 5508 5506 5504 5502 5500 5501 5501 5500 5501 5499 5497 5496 5495 5494 5491 5489 5487 5484 5482 5479 5477 5474 5472 5470 5467 5465 5463 5460 5458
5531 5530 5529 5528 5526 5524 5523 5521 5519 5516 5514 5511 5508 5505 5502 5500 5498 5496 5495 5494 5494 5494 5493 5492 5491 5490 5489 5487 5484 5482 5480 5478 5476 5473 5471 5468 5466 5463 5460 5458 5455 5453 5451 5448
5523 5522 5521 5520 5519 5517 5515 5513 5511 5509 5506 5504 5501 5498 5496 5493 5491 5489 5487 5486 5486 5487 5485 5484 5484 5484 5482 5478 5476 5473 5471 5469 5466 5464 5462 5460 5457 5455 5452 5449 5447 5444 5441 5439
5515 5515 5514 5513 5511 5509 5507 5506 5504 5502 5500 5497 5495 5492 5489 5485 5483 5482 5482 5481 5481 5480 5477 5476 5476 5475 5473 5468 5466 5464 5462 5460 5457 5455 5453 5450 5448 5446 5443 5440 5437 5435 5433 5430
5508 5507 5506 5504 5503 5502 5501 5499 5496 5494 5491 5489 5486 5484 5482 5480 5477 5475 5473 5473 5473 5471 5468 5468 5467 5465 5461 5458 5456 5455 5453 5451 5449 5447 5444 5441 5439 5437 5434 5432 5429 5427 5424 5422
5500 5500 5499 5498 5496 5495 5493 5490 5487 5485 5482 5480 5477 5475 5473 5471 5470 5467 5466 5464 5463 5462 5458 5456 5454 5453 5450 5448 5446 5445 5444 5442 5440 5438 5435 5432 5430 5428 5425 5423 5421 5418 5416 5413
5493 5492 5490 5488 5488 5487 5485 5482 5480 5477 5476 5473 5470 5467 5465 5463 5461 5459 5457 5455 5453 5451 5448 5446 5444 5443 5441 5439 5437 5436 5434 5433 5431 5429 5426 5424 5421 5419 5417 5415 5412 5410 5407 5405